This is the latest recevied weather packets stored in our database for station/object KF7MJQ-10. If no packets are shown the sender has not sent any weather packets the latest 10 day(s).
| Time | Temp. | Humidity | Pressure | Rain* | Wind** | Luminosity | Snow |
|---|---|---|---|---|---|---|---|
| 1778199663 | 12.78° C | 52% | 1018.9 hPa | 0 mm | - | - | - |
| 1778190660 | 13.33° C | 56% | 1019.9 hPa | 0 mm | - | - | - |
| 1778189489 | 13.89° C | 55% | 1019.9 hPa | 0 mm | - | - | - |
| 1778188854 | 13.89° C | 55% | 1019.9 hPa | 0 mm | - | - | - |
| 1778188555 | 13.33° C | 55% | 1019.9 hPa | 0 mm | - | - | - |
| 1778187954 | 13.33° C | 56% | 1020 hPa | 0 mm | - | - | - |
| 1778187650 | 13.33° C | 55% | 1020 hPa | 0 mm | - | - | - |
| 1778182531 | 13.89° C | 54% | 1020.4 hPa | 0 mm | - | - | - |
| 1778181930 | 13.33° C | 54% | 1020.5 hPa | 0 mm | - | - | - |
| 1778181009 | 13.33° C | 54% | 1020.5 hPa | 0 mm | - | - | - |
| 1778179243 | 13.33° C | 53% | 1020.5 hPa | 0 mm | - | - | - |
| 1778177117 | 13.33° C | 54% | 1020.6 hPa | 0 mm | - | - | - |
| 1778173822 | 12.22° C | 52% | 1020.7 hPa | 0 mm | - | - | - |
| 1778170533 | 11.67° C | 48% | 1020.8 hPa | 0 mm | - | - | - |
| 1778168705 | 11.67° C | 49% | 1020.9 hPa | 0 mm | - | - | - |
| 1778166041 | 11.67° C | 39% | 1020.9 hPa | 0 mm | - | - | - |
| 1778165113 | 11.11° C | 41% | 1020.8 hPa | 0 mm | - | - | - |
| 1778164810 | 11.11° C | 42% | 1020.8 hPa | 0 mm | - | - | - |
| 1778163606 | 11.67° C | 32% | 1020.7 hPa | 0 mm | - | - | - |
| 1778163044 | 11.67° C | 30% | 1020.7 hPa | 0 mm | - | - | - |
| 1778157046 | - | - | 1020.6 hPa | 0 mm | - | - | - |
| 1778153756 | - | - | 1021 hPa | 0 mm | - | - | - |
| 1778151018 | - | - | 1021.1 hPa | 0 mm | - | - | - |
| 1778146810 | - | - | 1021.4 hPa | 0 mm | - | - | - |
| 1778145905 | - | - | 1021.4 hPa | 0 mm | - | - | - |
* Rain latest hour (hover to see other rain measurements)
** Current wind speed in m/s (hover to see current wind gust speed)